Location: *
(37.5724°S, 58.0067°E)
Time: 10:46:07
(UTC+00:00)

H-2A ROCKET BODY - Visible Passes

Search period start: 17 January 2021 00:00
Search period end: 27 January 2021 00:00
Orbit: 214 x 15144 km, 28.6° (Epoch: 16 January)

Date Brightness Start Highest point End Pass type
(mag) Time Alt. Az. Time Alt. Az. Time Alt. Az.
17 Jan 6.3 00:52:58 10° W 02:50:34 64° NNW 03:05:08 10° NE visible
17 Jan 7.5 17:52:42 10° NNW 19:42:49 51° NE 21:04:46 10° E visible
17 Jan 6.7 23:21:23 10° WNW 01:44:41 71° NNW 02:04:38 10° ENE visible
18 Jan 7.3 16:52:44 10° N 18:29:06 39° ENE 19:56:25 10° ESE visible
18 Jan 7.2 22:01:41 10° WNW 00:34:54 74° N 01:03:22 10° ENE visible
19 Jan 7.2 15:56:20 10° NNE 17:19:19 28° ENE 18:42:16 10° ESE visible
19 Jan 7.6 20:49:22 10° NW 23:19:32 74° N 00:01:13 10° E visible
20 Jan 7.3 15:12:31 10° NE 16:13:06 16° E 17:12:24 10° E visible
20 Jan 7.7 19:41:26 10° NW 21:58:07 70° NNE 22:57:57 10° E visible
21 Jan 7.6 18:36:20 10° NNW 20:34:50 63° NE 21:53:13 10° E visible
22 Jan 6.4 00:26:18 10° W 02:32:35 63° NNW 02:48:57 10° NE visible
22 Jan 7.4 17:33:19 10° NNW 19:14:47 52° NE 20:46:21 10° E visible
22 Jan 6.9 22:56:55 10° WNW 01:24:52 71° NNW 01:47:23 10° ENE visible
23 Jan 7.2 16:32:17 10° N 17:59:29 41° ENE 19:36:05 10° ESE visible
23 Jan 7.3 21:38:25 10° WNW 00:12:30 75° N 00:44:58 10° ENE visible
24 Jan 7.1 15:34:15 10° NNE 16:48:39 28° ENE 18:19:30 10° ESE visible
24 Jan 7.6 20:26:25 10° NW 22:53:20 75° N 23:41:34 10° E visible
25 Jan 7.2 14:46:13 10° NE 15:41:40 16° E 16:46:01 10° E visible
25 Jan 7.7 19:18:20 10° NW 21:27:25 71° NNE 22:36:53 10° E visible
26 Jan 7.5 18:12:47 10° NNW 20:00:50 63° NE 21:30:32 10° E visible
